Other Public Products
Issued by NWS Grand Forks, ND

Home | Current Version | Previous Version | Graphics & Text | Print | Product List | Glossary On
Versions: 1 2 3 4 5 6 7 8 9 10 11 12 13 14 15 16 17 18 19 20 21 22 23 24 25 26 27 28 29 30 31 32 33 34 35 36 37 38 39 40 41 42 43 44 45 46 47 48 49 50
000
FPUS83 KFGF 201610
OPUFGF
PRAIRIE TO PINES WEATHER ROUNDUP
NATIONAL WEATHER SERVICE EASTERN NORTH DAKOTA/GRAND FORKS ND
1100 AM CDT WED AUG 20 2014

 **SATELLITE DATA USED TO AUGMENT SKY COVER AT AUTOMATED STATIONS**
 *****  WEATHER ACROSS EASTERN NORTH DAKOTA  *****

CITY           SKY/WX    TMP DP  RH WIND       PRES   REMARKS
GRAND FORKS    MOSUNNY   76  66  71 S10       29.77F
GRAND FORKS AF SUNNY     77  69  77 SE9       29.78F
GRAND CITY NWS   N/A     64 N/A N/A SE14        N/A
BUXTON         NOT AVBL
DEVILS LAKE    MOSUNNY   75  64  69 SE15      29.74R
FARGO          SUNNY     78  66  66 S10       29.79R
WAHPETON ARPT  MOSUNNY   75  63  64 SE9       29.80S
$$

 *****  WEATHER ACROSS CENTRAL AND WESTERN NORTH DAKOTA  *****

CITY           SKY/WX    TMP DP  RH WIND       PRES   REMARKS
JAMESTOWN      PTSUNNY   75  66  73 SE13      29.76S
BISMARCK       CLOUDY    75  65  70 S13       29.72S
MINOT          PTSUNNY   82  63  52 S13       29.69R
MINOT AFB      PTSUNNY   75  67  75 NE3       29.70R
GARRISON         N/A     73  65  75 SE10      29.70R
WILLISTON      PTSUNNY   72  64  76 S6        29.64R
DICKINSON      CLOUDY    72  63  73 SW10      29.69R
HETTINGER      CLOUDY    74  65  73 SE14      29.72S
$$

 *****  OTHER OBSERVATIONS NORTHEAST NORTH DAKOTA  *****

CITY           SKY/WX    TMP DP  RH WIND       PRES   REMARKS
WALHALLA         N/A     75  72  88 S9          N/A
LANGDON          N/A     81  64  57 S16       29.77
CAVALIER       FAIR      75  66  73 SE13      29.76F
GRAFTON        FAIR      75  66  73 SE13      29.77F
CANDO          FAIR      77  66  69 S13       29.75R
FORT TOTTEN    NOT AVBL
ROLLA          FAIR      75  68  78 S16       29.75R
RUGBY          NOT AVBL
 ***** THE ABOVE OBSERVATIONS ARE NON NWS ARE NOT QUALITY
        CONTROLLED AND MAY MIS-REPORT RAIN FOR SNOW...
$$

 *****  OTHER OBSERVATIONS SOUTHEAST NORTH DAKOTA *****

CITY           SKY/WX    TMP DP  RH WIND       PRES   REMARKS
COOPERSTOWN    NOT AVBL
VALLEY CITY    FAIR      77  70  78 SE10      29.79R
OAKES          NOT AVBL
GWINNER        SUNNY     75  68  78 SE9       29.79S
SHEYENNE NWR     N/A     76  66  71 SE10      29.95
BUFFALO        NOT AVBL
WYNDMERE       NOT AVBL
 ***** THE ABOVE OBSERVATIONS ARE NON NWS ARE NOT QUALITY
       CONTROLLED AND MAY MIS-REPORT RAIN FOR SNOW...
$$

  *****  WEATHER ACROSS NORTHERN MINNESOTA  *****

CITY           SKY/WX    TMP DP  RH WIND       PRES   REMARKS
FLAG ISLAND    MOSUNNY   72  63  73 E6        29.84F
WARROAD        PTSUNNY   73  66  78 E7        29.85R
ROSEAU         SUNNY     75  64  69 SE10      29.83S
HALLOCK        SUNNY     79  66  65 SE10      29.78F
THF RVR FALLS  SUNNY     75  64  69 SE9       29.82F
HALSTAD          N/A     78  64  63 SE9         N/A
FOSSTON        SUNNY     75  64  69 SE7       29.84S
BAUDETTE       SUNNY     73  61  65 E8        29.86S
WASKISH        MOSUNNY   75  64  69 CALM      29.86S
CROOKSTON      SUNNY     77  66  69 SE10      29.80F
$$
  *****  WEATHER ACROSS CENTRAL AND WEST MINNESOTA  *****

CITY           SKY/WX    TMP DP  RH WIND       PRES   REMARKS
BEMIDJI        CLOUDY    68  63  84 SE8       29.87F
PARK RAPIDS    PTSUNNY   71  63  75 SE9       29.86F
WADENA         SUNNY     72  64  78 E6        29.84F
DETROIT LAKES  SUNNY     73  64  73 SE9       29.84F
MOORHEAD       SUNNY     79  70  73 S9        29.80S
FERGUS FALLS   MOSUNNY   77  63  61 S9        29.81R
ELBOW LAKE     FAIR      75  65  70 SE10      29.81F
MORRIS MN      MOSUNNY   79  66  65 SE8       29.80R
STAPLES        MOSUNNY   70  63  78 SE6       29.86F
WHEATON        MOSUNNY   73  66  78 SE10      29.81R
$$
  *****  WEATHER ELSEWHERE ACROSS MINNESOTA  *****

CITY           SKY/WX    TMP DP  RH WIND       PRES   REMARKS
DULUTH         CLOUDY    68  59  73 CALM      29.90R
INTRNTL FALLS  MOSUNNY   71  60  68 VRB7      29.87F
ELY            CLOUDY    64  59  82 NE5       29.91R
CLOQUET        CLOUDY    66  59  77 S3        29.91R
BRAINERD       MOSUNNY   71  63  75 VRB5      29.88F
HIBBING        PTSUNNY   72  57  59 E8        29.89S
ALEXANDRIA     MOSUNNY   74  65  73 E10       29.85S
SAINT CLOUD    SUNNY     76  65  68 E7        29.85F
MINNEAPOLIS    MOSUNNY   76  65  68 VRB7      29.86R
$$

  *****  WEATHER ACROSS SOUTH DAKOTA  *****

CITY           SKY/WX    TMP DP  RH WIND       PRES   REMARKS
SIOUX FALLS    PTSUNNY   77  66  68 SE13      29.77F
BROOKINGS      NOT AVBL
WATERTOWN      SUNNY     76  65  68 S9        29.82R
HURON          MOSUNNY   79  67  66 SE8       29.75S
SISSETON         N/A     78  68  71 S10       29.78R
ABERDEEN       PTSUNNY   75  66  73 SE13      29.77R
MITCHELL       MOSUNNY   79  68  69 S13       29.76R
PIERRE         PTSUNNY   76  68  76 SE13      29.70R
MOBRIDGE       CLOUDY    77  65  66 S16       29.70F
RAPID CITY     CLOUDY    73  60  63 VRB3      29.75R
$$

  *****  SOME WEATHER IN NEARBY STATES *****

CITY           SKY/WX    TMP DP  RH WIND       PRES   REMARKS
GLASGOW MT     MOSUNNY   72  60  66 NW13      29.70R
GREAT FALLS MT MOSUNNY   69  50  50 SW7       29.84R
CHEYENNE WY    MOSUNNY   75  49  39 W18G31    29.99R
SCOTTSBLUFF NE MOSUNNY   80  56  43 W12       29.85S
OMAHA NE       CLOUDY    75  67  76 SE15      29.85S
DES MOINES IA  LGT RAIN  69  65  86 SE9       29.88F
DAVENPORT IA   CLOUDY    75  67  76 W7        29.93R
CHICAGO IL     PTSUNNY   80  63  55 SW8       29.89R
EAU CLAIRE WI  MOSUNNY   68  62  81 NE6       29.89F
LA CROSSE WI   MOSUNNY   74  66  76 CALM      29.90R
$$

  *****  SOME NATIONAL WEATHER *****

CITY           SKY/WX    TMP DP  RH WIND       PRES   REMARKS
LA GUARDIA NY  MOSUNNY   82  60  47 NE6       30.00S
RALEIGH NC     PTSUNNY   83  71  67 CALM      30.02S
ATLANTA GA     MOSUNNY   85  75  72 NW10      30.08S HX  93
NEW ORLEANS LA PTSUNNY   89  76  65 S6        30.08R HX 100
OKLAHOMA CITY  SUNNY     87  67  51 S20       29.93S HX  90
ALBUQUERQUE NM PTSUNNY   73  53  49 NW6       30.12R
SALT LAKE CITY MOSUNNY   66  55  67 S17G23    30.00F
LOS ANGELES CA PTSUNNY   73  58  59 CALM      29.94R
BOISE ID       PTSUNNY   71  49  45 W3        29.88R
SEATTLE WA     CLOUDY    60  50  69 S9        29.97R
$$

*** WEATHER ACROSS MANITOBA...SASKATCHEWAN AND ONTARIO ***
                ***ONTARIO***

CITY           SKY/WX    TMP DP  RH WIND       PRES   REMARKS
GERALDTON      CLOUDY    63  59  88 NE8       29.91R FOG
THUNDER BAY    CLOUDY    64  61  88 SE7       29.88R
SIOUX LOOKOUT  MOSUNNY   72  59  64 VRB2      29.91S
TORONTO        PTSUNNY   72  66  83 S6        29.90S
BIG TROUT LK   SUNNY     73  57  56 SE7       29.93S
PICKLE LAKE    MOSUNNY   75  54  46 NE8       29.91F
DRYDEN         MOSUNNY   70  59  68 SE5       29.90F
KENORA         MOSUNNY   72  61  68 E10       29.88F
$$
                *** MANITOBA***

CITY           SKY/WX    TMP DP  RH WIND       PRES   REMARKS
BRANDON        CLOUDY    72  64  78 SE12      29.71R
DAUPHIN        SUNNY     77  68  73 SE12      29.65F
ISLAND LAKE    MOSUNNY   75  63  64 S2        29.83S
PILOT MOUND      N/A     79  64  61 SE16G23     N/A
THE PAS        CLOUDY    75  64  69 SE12      29.63F SMOKE
THOMPSON       PTSUNNY   73  64  73 SE6       29.72F
WINNIPEG       MOSUNNY   77  64  65 SE13      29.77F
LYNN LAKE      CLOUDY    55  55 100 MISG      29.73
CHURCHILL      CLOUDY    50  48  93 W5        29.85R
GILLAM         MOSUNNY   77  64  65 SW7       29.78R
$$
                ***SASKATCHEWAN***

CITY           SKY/WX    TMP DP  RH WIND       PRES   REMARKS
ESTEVAN        TSTM      66  63  88 SE8       29.69R
KINDERSLEY     PTSUNNY   64  57  77 W9        29.75R
LLOYDMINSTER   MOSUNNY   63  55  77 NW8       29.77R
PRINCE ALBERT  LGT RAIN  63  61  94 E5        29.66R FOG
REGINA         CLOUDY    68  63  83 W12       29.65R


USA.gov is the U.S. government's official web portal to all federal, state and local government web resources and services.